DMSP 5D-2 F13 DEB

Satellite information

Favourite Embed

Satellite Type and Status

DEBRISIN ORBIT

Key statistics

Satellite DMSP 5D-2 F13 DEB at a glance.

Uptime

11005

Days in orbit

Revolutions

≈ 13.9

Per day

Orbit

SSO

Sun Synchronous Orbit

Inclination

98.8

Latest

Satellite identification and parameters

Extended collection of information and parameters for DMSP 5D-2 F13 DEB.

Object identification

Identified? True

Debris? True

Object name: DMSP 5D-2 F13 DEB

International designator: 1995-015DY

Object number (NORAD): 40565

Object ID (CCSDS): 40565

Country: UNITED STATES OF AMERICA (US)

Current information (Y/N): Y

RCS size: SMALL

Orbital parameters

Period: 103.933 minutes

Inclination: 98.7762 deg

SMA: 7322.54 km

Apoapsis: 1067.734 km

Periapsis: 821.077 km

RAAN: 260.1462 deg

Eccentricy: 0.0168423

Argument of periapsis: 276.8846 deg

Mean anomaly: 81.3177 deg

Mean motion: 13.85511366 rev/day

Mean motion (dot): 0.0000257 rev/day2

B* drag term: 0.0020491 1/REarth

Two-line elements (TLE)

Creation date: May 9, 2025, 5:15 p.m.

Reference frame: TEME

Reference center: EARTH

Epoch: May 9, 2025, 7:24 a.m. UTC

TLE line 0: 0 DMSP 5D-2 F13 DEB

TLE line 1: 1 40565U 95015DY 25129.30852584 .00002570 00000-0 20491-2 0 9996

TLE line 2: 2 40565 98.7762 260.1462 0168423 276.8846 81.3177 13.85511366508129

Live tracking on map

Real-time ground track for satellite DMSP 5D-2 F13 DEB.

In-orbit conjunctions

A list of the most updated potential collisions computed for object DMSP 5D-2 F13 DEB.

Target Orbit TCA Probability of collision Miss distance Type
SL-3 DEB LEO 2025-04-09 06:11:41 0.0002194219 78.0 (m) DEBRIS
SL-3 R/B LEO 2024-12-31 15:02:44 0.0001652415 251.0 (m) ROCKET BODY
FENGYUN 1C DEB SSO 2024-11-16 07:18:01 0.000129893 202.0 (m) DEBRIS

Associated space launch

Military meteorological satellite

DMSP 5D-2 F13 DEB was lifted into orbit during the mission ‘Atlas E | DMSP-5D2 F13’, on board a Atlas E space rocket.

The launch took place on March 24, 1995, 2:05 p.m. from Space Launch Complex 3W.

For more information about the launch, click the button.

Launch to space Atlas E | DMSP-5D2 F13
Atlas E | DMSP-5D2 F13

Agency: N/A

Status: Launch Successful

Launch date: March 24, 1995, 2:05 p.m. UTC

Rocket: Atlas E

Launch pad: Space Launch Complex 3W

Location: Vandenberg SFB, CA, USA

...

Latest news about this satellite

There are no fresh news available about this satellite. Check back as we update our databases every day.


Newsletter sign-up

Weekly statistics, charts and insights to help you stay on top of the space industry.